SCP
0 0 0 0 0 0 0 0 0 0 0 0 0 0 0 0 0 0 0 0 0 0 0 0 0 0 0 0 0 0 1 1
0 0 0 0 0 0 0 0 0 0 0 0 0 0 0 0 0 0 0 0 0 0 0 0 0 0 0 0 0 0 0 1
0 0 0 0 0 0 0 0 0 0 0 0 -0 0 0 0 0 0 0 0 0 0 0 0 0 0 0 0 0 0 0 0
0 0 0 0 0 0 0 0 0 0 0 -0 0 0 0 0 0 0 0 0 0 0 0 0 0 0 0 0 0 0 0 0
0 0 0 0 0 0 0 0 0 0 -0 -0 -0 0 0 0 0 0 0 0 0 0 0 0 0 0 0 0 0 0 0 0
0 0 0 0 0 0 0 0 0 -0 -0 -0 0 0 0 0 0 0 0 0 0 0 0 0 0 0 0 0 0 0 0 0
0 0 0 0 0 0 -0 -0 -0 -0 -0 0 0 0 0 0 0 0 0 0 0 0 0 0 0 0 0 0 0 0 0 0
0 0 0 0 0 0 0 -0 -0 -0 0 0 0 0 0 0 0 0 0 0 0 0 0 0 0 0 0 0 0 0 0 0
0 0 -0 0 0 0 -0 -0 -0 -0 0 0 0 0 0 0 0 0 0 0 0 0 0 0 0 0 -0 0 0 0 0 0
0 -0 -0 0 0 -0 -0 -0 -0 -0 0 0 0 0 0 0 0 0 0 0 0 0 0 0 0 -0 -0 -0 -0 0 0 0
-0 -0 0 -0 -0 -0 0 0 -0 -0 0 0 0 0 0 0 0 0 0 0 0 0 0 0 -0 -0 0 -0 -0 -0 -0 0
-0 -0 0 0 -0 -0 -0 0 -0 -0 0 0 0 0 0 0 0 0 0 0 0 0 0 0 0 0 0 0 -0 0 -0 0
-0 0 0 0 0 -0 -0 -0 -0 -0 0 0 0 0 0 0 0 0 0 0 0 0 0 0 0 0 0 0 -0 -0 -0 -0
-0 -0 0 0 -0 0 -0 -0 0 -0 0 0 0 0 0 0 0 0 0 0 -0 0 -0 0 0 0 -0 -0 -0 -0 0 0
0 0 0 -0 0 -0 -0 0 0 0 -0 0 0 0 0 0 0 0 0 0 0 0 -0 0 0 0 -0 -0 0 -0 -0 0
0 0 0 -0 -0 0 0 0 0 0 -0 -0 0 0 0 0 0 0 0 0 -0 0 0 -0 -0 -0 -0 -0 0 0 0 0
0 0 0 -0 -0 -0 -0 -0 -0 0 -0 -0 0 0 0 0 0 0 -0 -0 0 -0 0 0 -0 -0 -0 0 0 0 0 0
-0 -0 -0 -0 -0 -0 -0 -0 -0 -0 -0 -0 0 0 0 0 0 0 0 -0 -0 0 -0 -0 0 0 0 -0 0 0 0 0
0 0 0 0 -0 -0 -0 -0 -0 -0 -0 -0 -0 0 0 0 0 0 0 0 -0 -0 -0 -0 -0 0 -0 -0 0 0 0 0
0 0 0 0 0 0 0 -0 0 -0 -0 0 -0 -0 0 0 0 0 0 0 -0 -0 -0 -0 -0 -0 -0 -0 0 0 0 0
Wind_Speed_500mb
20 24 28 35 43 48 46 43 43 45 46 47 50 54 57 59 61 61 59 58 59 62 65 68 68 69 71 70 71 69 68 74
24 27 32 41 43 40 39 41 42 42 44 47 52 58 61 60 61 64 68 69 68 61 56 58 63 63 61 61 64 70 72 70
30 36 41 39 41 38 40 39 36 39 45 46 47 54 53 54 56 57 58 57 62 66 70 67 64 63 65 65 67 68 70 71
34 38 37 39 37 42 42 39 35 40 44 50 55 57 51 50 53 58 61 62 64 69 74 74 70 64 60 67 64 68 75 81
35 37 38 38 41 42 42 36 37 40 46 53 48 49 53 54 62 67 67 69 72 79 80 77 80 73 68 63 61 67 68 80
34 35 37 37 41 40 38 32 37 42 46 45 50 52 57 66 69 67 70 72 71 69 71 69 72 70 63 63 63 61 67 75
31 33 37 40 39 39 35 32 37 41 43 49 61 61 64 64 66 63 68 67 65 62 61 64 70 65 62 51 54 58 60 64
31 35 38 37 36 36 33 35 38 43 48 52 60 58 62 62 64 63 68 63 61 59 60 61 60 57 52 45 47 56 55 49
31 34 37 38 38 37 37 39 42 46 47 50 59 58 61 61 62 61 62 59 53 58 55 49 50 43 42 38 39 45 40 42
35 39 39 37 36 37 38 40 44 47 47 53 59 53 64 56 62 64 62 50 45 40 45 55 35 24 22 24 35 41 46 49
37 42 41 39 38 37 41 42 44 46 46 50 53 53 57 57 59 65 55 41 35 39 53 47 35 32 34 34 35 38 41 51
35 37 44 46 42 39 41 43 42 43 44 48 45 56 54 57 59 60 47 36 40 48 56 55 54 46 37 35 34 35 38 45
36 38 40 45 47 46 45 44 40 38 37 42 44 47 50 53 63 46 34 33 43 55 59 57 51 49 40 34 38 46 40 4
36 37 38 42 46 50 49 46 38 37 37 41 45 43 46 49 56 46 30 39 39 49 47 43 43 45 46 52 56 32 13 8
36 37 36 39 43 48 53 50 41 38 38 38 41 39 42 41 43 46 47 42 46 56 60 39 37 40 54 45 8 32 39 48
35 34 37 40 43 47 51 50 45 39 37 35 37 38 38 38 34 33 35 40 46 54 63 68 46 55 45 44 42 33 33 40
35 35 38 40 44 47 50 51 48 46 42 40 37 38 37 33 34 30 32 32 38 42 52 62 68 56 34 27 32 31 24 33
38 43 44 42 43 45 47 49 49 45 47 42 38 37 37 39 37 39 38 38 37 39 44 55 61 53 54 39 35 19 22 27
34 39 44 45 45 43 42 46 45 45 44 46 48 42 41 39 41 44 38 37 38 37 37 39 39 43 46 50 45 34 35 30
35 37 46 45 44 43 43 44 42 43 45 44 43 49 50 44 44 44 45 40 38 39 34 31 27 30 35 37 38 36 31 29
Wind_Direction_500mb
338 334 332 330 327 323 318 316 315 315 314 315 314 315 312 308 306 304 301 298 296 293 291 288 284 280 275 265 260 254 250 245
329 332 330 327 325 323 319 320 322 322 321 322 322 324 318 313 313 313 311 308 303 296 291 291 287 281 277 266 261 258 254 250
330 331 329 328 323 322 319 320 323 325 323 321 317 318 316 315 310 305 301 298 297 299 297 293 290 286 274 270 260 260 257 254
329 327 324 323 321 318 319 324 325 323 321 320 324 326 313 309 309 309 308 303 301 302 302 298 294 291 275 272 269 263 261 254
325 323 320 318 318 317 318 319 321 320 323 332 319 313 313 314 319 320 316 313 312 309 302 299 295 292 284 282 275 270 266 259
322 319 316 318 319 318 317 313 316 319 325 319 321 319 318 321 323 326 323 318 312 313 302 300 297 295 287 275 277 271 271 263
318 320 323 322 324 321 317 313 313 318 316 321 326 328 323 322 325 327 324 320 318 316 312 305 302 298 282 282 277 285 281 263
332 332 332 331 324 320 315 312 315 315 317 325 320 328 327 326 328 327 323 322 319 315 313 310 304 298 294 281 285 287 281 285
343 341 342 337 329 321 313 312 317 319 323 316 326 329 330 332 332 332 327 326 320 316 316 316 317 317 303 297 279 273 294 292
359 355 352 346 338 330 323 319 316 320 318 325 332 333 335 333 338 338 338 332 323 332 331 339 348 335 318 281 272 285 292 275
4 3 357 355 352 347 336 328 320 318 319 332 336 339 344 344 342 344 339 336 331 331 341 349 337 312 309 316 311 301 295 276
357 360 4 5 360 356 349 341 330 326 332 337 338 340 350 351 355 348 340 338 339 339 344 340 337 329 331 321 315 321 302 298
5 2 359 4 6 3 358 352 342 337 342 343 342 348 1 357 1 1 357 1 343 337 338 334 333 329 328 313 318 313 311 311
3 1 357 1 6 7 5 0 353 345 346 348 351 353 6 1 5 17 18 3 20 14 357 343 328 325 320 317 313 309 114 224
2 358 355 0 5 7 8 6 -0 353 352 354 353 358 7 4 4 11 8 22 25 17 17 7 352 349 327 324 154 111 120 111
1 359 1 4 5 6 8 8 9 1 0 5 358 358 2 8 359 358 3 357 2 5 14 18 8 15 28 90 102 115 119 158
7 6 8 9 9 7 9 11 14 12 6 7 6 2 2 5 3 2 1 2 7 359 360 20 24 29 66 95 114 130 90 139
13 15 14 14 12 8 8 10 15 15 18 14 18 13 11 8 9 10 9 5 4 5 10 12 17 31 50 68 76 88 73 122
20 16 20 19 15 11 11 13 15 16 16 16 22 23 23 18 15 20 15 11 7 5 5 11 18 25 34 45 61 75 65 65
24 21 23 22 20 20 19 17 17 18 19 17 18 21 27 26 22 21 22 23 17 12 6 360 9 21 31 41 46 63 74 82
Wind_Speed_850mb
20 24 28 35 43 48 46 43 43 45 46 47 50 54 57 59 61 61 59 58 59 62 65 68 68 69 71 70 71 69 68 74
24 27 32 41 43 40 39 41 42 42 44 47 52 58 61 60 61 64 68 69 68 61 56 58 63 63 61 61 64 70 72 70
30 36 41 39 41 38 40 39 36 39 45 46 47 54 53 54 56 57 58 57 62 66 70 67 64 63 65 65 67 68 70 71
34 38 37 39 37 42 42 39 35 40 44 50 55 57 51 50 53 58 61 62 64 69 74 74 70 64 60 67 64 68 75 81
35 37 38 38 41 42 42 36 37 40 46 53 48 49 53 54 62 67 67 69 72 79 80 77 80 73 68 63 61 67 68 80
34 35 37 37 41 40 38 32 37 42 46 45 50 52 57 66 69 67 70 72 71 69 71 69 72 70 63 63 63 61 67 75
31 33 37 40 39 39 35 32 37 41 43 49 61 61 64 64 66 63 68 67 65 62 61 64 70 65 62 51 54 58 60 64
31 35 38 37 36 36 33 35 38 43 48 52 60 58 62 62 64 63 68 63 61 59 60 61 60 57 52 45 47 56 55 49
31 34 37 38 38 37 37 39 42 46 47 50 59 58 61 61 62 61 62 59 53 58 55 49 50 43 42 38 39 45 40 42
35 39 39 37 36 37 38 40 44 47 47 53 59 53 64 56 62 64 62 50 45 40 45 55 35 24 22 24 35 41 46 49
37 42 41 39 38 37 41 42 44 46 46 50 53 53 57 57 59 65 55 41 35 39 53 47 35 32 34 34 35 38 41 51
35 37 44 46 42 39 41 43 42 43 44 48 45 56 54 57 59 60 47 36 40 48 56 55 54 46 37 35 34 35 38 45
36 38 40 45 47 46 45 44 40 38 37 42 44 47 50 53 63 46 34 33 43 55 59 57 51 49 40 34 38 46 40 4
36 37 38 42 46 50 49 46 38 37 37 41 45 43 46 49 56 46 30 39 39 49 47 43 43 45 46 52 56 32 13 8
36 37 36 39 43 48 53 50 41 38 38 38 41 39 42 41 43 46 47 42 46 56 60 39 37 40 54 45 8 32 39 48
35 34 37 40 43 47 51 50 45 39 37 35 37 38 38 38 34 33 35 40 46 54 63 68 46 55 45 44 42 33 33 40
35 35 38 40 44 47 50 51 48 46 42 40 37 38 37 33 34 30 32 32 38 42 52 62 68 56 34 27 32 31 24 33
38 43 44 42 43 45 47 49 49 45 47 42 38 37 37 39 37 39 38 38 37 39 44 55 61 53 54 39 35 19 22 27
34 39 44 45 45 43 42 46 45 45 44 46 48 42 41 39 41 44 38 37 38 37 37 39 39 43 46 50 45 34 35 30
35 37 46 45 44 43 43 44 42 43 45 44 43 49 50 44 44 44 45 40 38 39 34 31 27 30 35 37 38 36 31 29
Wind_Direction_850mb
338 334 332 330 327 323 318 316 315 315 314 315 314 315 312 308 306 304 301 298 296 293 291 288 284 280 275 265 260 254 250 245
329 332 330 327 325 323 319 320 322 322 321 322 322 324 318 313 313 313 311 308 303 296 291 291 287 281 277 266 261 258 254 250
330 331 329 328 323 322 319 320 323 325 323 321 317 318 316 315 310 305 301 298 297 299 297 293 290 286 274 270 260 260 257 254
329 327 324 323 321 318 319 324 325 323 321 320 324 326 313 309 309 309 308 303 301 302 302 298 294 291 275 272 269 263 261 254
325 323 320 318 318 317 318 319 321 320 323 332 319 313 313 314 319 320 316 313 312 309 302 299 295 292 284 282 275 270 266 259
322 319 316 318 319 318 317 313 316 319 325 319 321 319 318 321 323 326 323 318 312 313 302 300 297 295 287 275 277 271 271 263
318 320 323 322 324 321 317 313 313 318 316 321 326 328 323 322 325 327 324 320 318 316 312 305 302 298 282 282 277 285 281 263
332 332 332 331 324 320 315 312 315 315 317 325 320 328 327 326 328 327 323 322 319 315 313 310 304 298 294 281 285 287 281 285
343 341 342 337 329 321 313 312 317 319 323 316 326 329 330 332 332 332 327 326 320 316 316 316 317 317 303 297 279 273 294 292
359 355 352 346 338 330 323 319 316 320 318 325 332 333 335 333 338 338 338 332 323 332 331 339 348 335 318 281 272 285 292 275
4 3 357 355 352 347 336 328 320 318 319 332 336 339 344 344 342 344 339 336 331 331 341 349 337 312 309 316 311 301 295 276
357 360 4 5 360 356 349 341 330 326 332 337 338 340 350 351 355 348 340 338 339 339 344 340 337 329 331 321 315 321 302 298
5 2 359 4 6 3 358 352 342 337 342 343 342 348 1 357 1 1 357 1 343 337 338 334 333 329 328 313 318 313 311 311
3 1 357 1 6 7 5 0 353 345 346 348 351 353 6 1 5 17 18 3 20 14 357 343 328 325 320 317 313 309 114 224
2 358 355 0 5 7 8 6 -0 353 352 354 353 358 7 4 4 11 8 22 25 17 17 7 352 349 327 324 154 111 120 111
1 359 1 4 5 6 8 8 9 1 0 5 358 358 2 8 359 358 3 357 2 5 14 18 8 15 28 90 102 115 119 158
7 6 8 9 9 7 9 11 14 12 6 7 6 2 2 5 3 2 1 2 7 359 360 20 24 29 66 95 114 130 90 139
13 15 14 14 12 8 8 10 15 15 18 14 18 13 11 8 9 10 9 5 4 5 10 12 17 31 50 68 76 88 73 122
20 16 20 19 15 11 11 13 15 16 16 16 22 23 23 18 15 20 15 11 7 5 5 11 18 25 34 45 61 75 65 65
24 21 23 22 20 20 19 17 17 18 19 17 18 21 27 26 22 21 22 23 17 12 6 360 9 21 31 41 46 63 74 82